Back to catalog

EUTE 1-F4

ECS 4

AliveCommunicationsGEO
NORAD 18351·PAYLOAD·🇪🇺 EU

Launched Sep 16, 1987 from Guiana Space Centre

Loading…

TLE

FreshSource: Space-Track

Epoch: Sep 14, 2026, 10:43 UTC

1 18351U 87078B   26257.44720279 -.00000262  00000-0  00000-0 0  9996
2 18351  13.7666 341.4935 0008072  41.0869 294.2302  0.98691545127631

Track EUTE 1-F4 in real time with AllMySat

Download on the App Store